Simultaneous Nadir Overpasses (SNOs) Predictions

Prediction of SNOs between GOES-17 and METOP-B Satellite Orbit:

Table of predicted SNOs for the next 14.0 days since TLE Epoch: 11/11/2023
Index Date Time (GOES-17) GOES-17 Lat,Lon METOP-B Lat,Lon Distance(km) Time Diff (sec)
1 11/11/2023 04:42:36 -0.01,-104.66 -0.81,-108.29 413.66 80
2 11/12/2023 04:19:15 -0.01,-104.66 0.28,-103.30 155.34 80
3 11/13/2023 16:38:07 0.01,-104.68 0.69,-107.87 362.99 80
4 11/14/2023 16:20:06 0.00,-104.68 -0.41,-102.87 206.00 80
5 11/16/2023 04:39:05 0.00,-104.66 -0.59,-107.47 320.20 80
6 11/17/2023 04:15:45 0.01,-104.65 0.51,-102.48 248.30 80
7 11/18/2023 16:34:35 -0.01,-104.66 0.51,-107.04 270.86 80
8 11/19/2023 16:16:35 -0.01,-104.66 -0.60,-102.04 298.07 80
9 11/21/2023 04:35:33 0.01,-104.64 -0.44,-106.63 227.52 80
10 11/22/2023 04:12:13 0.01,-104.64 0.67,-101.64 341.36 80
11 11/23/2023 16:31:03 -0.01,-104.65 0.33,-106.20 177.43 80
12 11/24/2023 16:13:03 -0.01,-104.65 -0.79,-101.21 391.87 80
